Preview of NWS' New Version of Forecast
This preview is not operational and should not be used for support decisions.

Regional Weather Roundup (RWR)

Issued by Gray - Portland, ME (GYX)

                            
000
ASUS41 KGYX 241610
RWRGYX
WEATHER ROUNDUP FOR MAINE AND NEW HAMPSHIRE
NATIONAL WEATHER SERVICE GRAY ME
1200 PM EDT WED APR 24 2019

MEZ002-005-006-010-012-015-018-020-021-024-026-027-029-241700-
MAINE
  
CITY           SKY/WX    TMP DP  RH WIND       PRES   REMARKS
PORTLAND       CLOUDY    45  42  89 CALM      29.70S                  
SANFORD        CLOUDY    51  46  83 NE6       29.69F                  
BAR HARBOR     LGT RAIN  39  39 100 NE6       29.72F FOG              
WISCASSET      CLOUDY    44  42  93 E5        29.70F FOG              
ROCKLAND       CLOUDY    41  40  96 NE8       29.70F FOG              
FRYEBURG       CLOUDY    45  41  86 CALM      29.69S                  
LEWISTONAUBURN   N/A     45  41  86 SW5       29.70S                  
AUGUSTA        CLOUDY    43  42  97 E6        29.68F                  
WATERVILLE     CLOUDY    43  41  93 VRB5      29.67F                  
BANGOR         CLOUDY    42  40  92 NE3       29.73R FOG              
GREENVILLE       N/A     36  33  89 E6        29.66S                  
MILLINOCKET    CLOUDY    38  35  89 E5        29.74F                  
HOULTON        CLOUDY    39  36  89 E7        29.73F FOG              
PRESQUE ISLE   RAIN      37  36  93 NE6       29.76F FOG              
FRENCHVILLE    MIX PCPN  37  32  82 NE7       29.75S                  
CARIBOU        LGT RAIN  38  34  85 NE5       29.75S FOG              
$$

NHZ002-005-008-009-011-012-014-241700-
NEW HAMPSHIRE
  
CITY           SKY/WX    TMP DP  RH WIND       PRES   REMARKS
PORTSMOUTH     PTSUNNY   55  47  76 NW7       29.66F                  
ROCHESTER      CLOUDY    53  46  77 CALM      29.67F                  
NASHUA         FAIR      61  38  42 NW10G25   29.68F                  
MANCHESTER     PTSUNNY   61  37  41 W10G20    29.67R                  
CONCORD        CLOUDY    56  39  53 NW9G18    29.68S                  
LACONIA        CLOUDY    53  44  71 MISG      29.68F                  
PLYMOUTH       CLOUDY    54  41  63 W8        29.68R                  
BERLIN         CLOUDY    46  43  89 N7        29.65                   
WHITEFIELD     LGT RAIN  50  39  66 W9        29.66R                  
JAFFREY        FAIR      55  37  50 NW15G21   29.71                   
KEENE          FAIR      55  39  54 W10G17    29.73R                  
LEBANON        CLOUDY    55  37  50 SW14G21   29.70R                  
MT WASHINGTON  NOT AVBL                                               
$$

VTZ005-007-008-241700-
VERMONT
  
CITY           SKY/WX    TMP DP  RH WIND       PRES   REMARKS
ST JOHNSBURY     N/A     49  39  68 MISG      29.67R                  
MONTPELIER     CLOUDY    47  36  65 NW7       29.72                   
BURLINGTON     LGT RAIN  48  36  63 W7        29.73R                  
$$

MAZ007-012-024-CTZ003-RIZ002-NYZ038-NYZ072-241700-
SOUTHERN NEW ENGLAND AND NY
  
CITY           SKY/WX    TMP DP  RH WIND       PRES   REMARKS
BOSTON         FAIR      63  47  55 NW8       29.67F                  
WORCESTER      FAIR      56  39  53 W15G28    29.70R                  
NANTUCKET      FAIR      59  50  72 W13       29.67F                  
PROVIDENCE     FAIR      67  46  47 W14G20    29.68S                  
HARTFORD       FAIR      63  39  41 NW15G23   29.74                   
ALBANY         PTSUNNY   51  37  58 NW15G22   29.83                   
NEW YORK CITY  FAIR      62  38  40 NW14      29.77                   
$$

ANZ081-ANZ082-ANZ150-NHZ014-MEZ023>029-241700-
COASTAL MARINE OBSERVATIONS
  
STATION/POSITION TIME  TEMP    WIND        PRES    WAVE
                       AIR SEA DIR/SP/G            HT/PER
                 (UTC) (F)     (DEG/KT/KT) (MB)    (FT/S)
ISLE OF SHOALS   1500   44      20/  6/  6 1004.9R
$$

.............KEY..............
   WCI - WIND CHILL
   TC  - TEMPERATURE IN CELSIUS
   VSB - VISIBILITY IN MILES
   HX  - HEAT INDEX
   FAIR- INDICATES FEW OR NO CLOUDS BELOW 12,000 FT, WITH NO 
         SIGNIFICANT WEATHER AND/OR OBSTRUCTIONS TO VISIBILITY.